Regional Weather Roundup
Issued by NWS

Home | Current Version | Previous Version | Text Only | Print | Product List | Glossary Off
Versions: 1 2 3 4 5 6 7 8 9 10 11 12 13 14 15 16 17 18 19 20 21 22 23 24 25 26 27 28 29 30 31 32 33 34 35 36 37 38 39 40 41 42 43 44 45 46 47 48 49 50

000
ASUS45 KSLC 310610
RWRUT

UTAH REGIONAL WEATHER ROUNDUP
NATIONAL WEATHER SERVICE SALT LAKE CITY UT
1200 AM MDT THU JUL 31 2014

UTZ001>011-023>025-310700-

NORTHERN UTAH

CITY           SKY/WX    TMP DP  RH WIND       PRES   REMARKS
HILL AFB       CLEAR     68  53  57 E21G30    30.22S
LOGAN          CLEAR     69  51  52 S12       30.24S
OGDEN          CLEAR     70  51  51 NW3       30.19F
PROVO AIRPORT  CLEAR     72  54  53 N10       30.21S
SALT LAKE CITY PTCLDY    69  54  58 CALM      30.18R
VERNAL         CLOUDY    63  49  60 N6        30.28S
WENDOVER       PTCLDY    75  55  50 N6        30.22R
HEBER CITY     PTCLDY    59  54  82 E5        30.30S
WEST JORDAN    CLEAR     70  57  64 N9        30.21S

$$

UTZ012>022-026-027-310700-

SOUTHERN UTAH

CITY           SKY/WX    TMP DP  RH WIND       PRES   REMARKS
BRYCE CANYON   PTCLDY    53  49  86 W5        30.39S
CEDAR CITY     MOCLDY    71  51  49 CALM      30.25R
MILFORD        MOCLDY    75  50  41 N8        30.19S
MOAB/CYNLANDS  CLEAR     72  59  63 SE7       30.15R
PRICE          CLEAR     68  52  56 N8        30.27S
ST GEORGE      CLEAR     90  48  24 CALM      30.01R
KANAB            N/A     73  52  46 NW10      30.20S

$$

REGIONAL REPORTS     COLORADO/ARIZONA

CITY           SKY/WX    TMP DP  RH WIND       PRES   REMARKS
CRAIG, CO      PTCLDY    55  55 100 VRB3      30.31S
GRAND JUNCTION MOCLDY    66  60  81 NW6       30.19S
RIFLE          PTCLDY    65  56  72 CALM      30.25S
MONTROSE       MOCLDY    68  54  60 SE7       30.27R
CORTEZ         CLEAR     63  52  67 NE6       30.23R
PAGE, AZ       PTCLDY    85  47  26 VRB5      30.09R
GRAND CANYON   PTCLDY    61  48  62 NE5       30.30S
KINGMAN        PTCLDY    80  51  36 E5        30.04S
FLAGSTAFF      CLEAR     69  44  40 W3        30.35R

$$

REGIONAL REPORTS    NEVADA/IDAHO/WYOMING

CITY           SKY/WX    TMP DP  RH WIND       PRES   REMARKS
LAS VEGAS, NV  PTCLDY    94  50  22 S9        29.90R HX  91
ELY            CLOUDY    63  47  55 S6        30.31R
ELKO           MOCLDY    74  45  35 NE8       30.23R
POCATELLO, ID  CLEAR     65  49  56 CALM      30.24S
BURLEY         PTCLDY    67  50  54 CALM      30.18F
EVANSTON, WY   CLEAR     57  50  77 NE6       30.41R
ROCK SPRINGS   MOCLDY    55  43  63 N3        30.39F

$$



USA.gov is the U.S. government's official web portal to all federal, state and local government web resources and services.